Simultaneous Nadir Overpasses (SNOs) Predictions

Prediction of SNOs between GOES-15 and NPP Satellite Orbit:

Table of predicted SNOs for the next 14.0 days since TLE Epoch: 8/28/2021
Index Date Time (GOES-15) GOES-15 Lat,Lon NPP Lat,Lon Distance(km) Time Diff (sec)
1 08/29/2021 10:02:10 0.45,-128.29 0.56,-128.86 64.15 74
2 08/30/2021 09:40:52 0.44,-128.29 -0.43,-124.33 451.83 80
3 08/31/2021 22:05:29 -0.44,-128.22 -0.75,-129.63 160.43 80
4 09/01/2021 21:44:04 -0.43,-128.22 0.24,-125.10 355.10 80
5 09/03/2021 10:05:54 0.43,-128.27 0.88,-130.38 239.96 80
6 09/04/2021 09:49:49 0.43,-128.26 -0.12,-125.85 275.41 80
7 09/05/2021 22:09:07 -0.42,-128.18 -1.06,-131.15 337.74 80
8 09/06/2021 21:53:02 -0.42,-128.17 -0.06,-126.62 177.42 80
9 09/08/2021 10:12:10 0.42,-128.22 1.24,-131.89 418.54 80
10 09/09/2021 09:56:06 0.42,-128.20 0.24,-127.36 96.50 80
